,,,PA_Meas_PMT16A,,PR_Meas_QMR101_102,,RH_Meas_QMH101,,SR_Meas_QMS101,,TA_Meas_QMH101,,GenWind,,GenWind,
date,time,status,PA,status,PR,status,RH,status,SR,status,TA,status,DirAvg,status,SpdAvg,
2008-06-15, 00:00:04,VALID,1010.28,VALID,0,VALID,91.9895,VALID,0,VALID,25.3098,VALID,348,VALID,0.119531,
2008-06-15, 00:01:04,VALID,1010.23,VALID,0,VALID,92.0733,VALID,0,VALID,25.2903,VALID,348,VALID,0.0371094,
2008-06-15, 00:02:04,VALID,1010.24,VALID,0,VALID,92.1039,VALID,0.105969,VALID,25.2903,VALID,348,VALID,0,
2008-06-15, 00:03:04,VALID,1010.24,VALID,0,VALID,91.9895,VALID,0.105969,VALID,25.2708,VALID,348,VALID,0,
2008-06-15, 00:04:04,VALID,1010.25,VALID,0,VALID,91.8675,VALID,0.105969,VALID,25.2708,VALID,348,VALID,0,
2008-06-15, 00:05:04,VALID,1010.21,VALID,0,VALID,92.1954,VALID,0,VALID,25.2903,VALID,348,VALID,0,
2008-06-15, 00:06:04,VALID,1010.2,VALID,0,VALID,92.1191,VALID,0,VALID,25.2903,VALID,348,VALID,0,
2008-06-15, 00:07:04,VALID,1010.17,VALID,0,VALID,92.2106,VALID,0.105969,VALID,25.2708,VALID,348,VALID,0,
2008-06-15, 00:08:04,VALID,1010.16,VALID,0,VALID,92.3021,VALID,0.105969,VALID,25.2708,VALID,348,VALID,0,
2008-06-15, 00:09:04,VALID,1010.13,VALID,0,VALID,92.3326,VALID,0.105969,VALID,25.2727,VALID,348,VALID,0.137109,
2008-06-15, 00:10:04,VALID,1010.13,VALID,0,VALID,92.4089,VALID,0,VALID,25.2513,VALID,348,VALID,0.0789063,
2008-06-15, 00:11:04,VALID,1010.1,VALID,0,VALID,92.325,VALID,0,VALID,25.2318,VALID,348,VALID,0.00664063,
2008-06-15, 00:12:04,VALID,1010.1,VALID,0,VALID,92.2335,VALID,0,VALID,25.2318,VALID,348,VALID,0,
2008-06-15, 00:13:04,VALID,1010.06,VALID,0,VALID,92.1344,VALID,0.105969,VALID,25.2123,VALID,348,VALID,0,
2008-06-15, 00:14:04,VALID,1010.04,VALID,0,VALID,92.1115,VALID,0,VALID,25.2123,VALID,348,VALID,0,
2008-06-15, 00:15:04,VALID,1010.04,VALID,0,VALID,92.1115,VALID,0,VALID,25.2318,VALID,348,VALID,0,
2008-06-15, 00:16:04,VALID,1010.02,VALID,0,VALID,92.264,VALID,0.105969,VALID,25.2318,VALID,348,VALID,0,
2008-06-15, 00:17:04,VALID,1009.99,VALID,0,VALID,92.5309,VALID,0.105969,VALID,25.2318,VALID,348,VALID,0,
2008-06-15, 00:18:04,VALID,1009.97,VALID,0,VALID,92.3555,VALID,0,VALID,25.2123,VALID,348,VALID,0.160938,
2008-06-15, 00:19:04,VALID,1009.99,VALID,0,VALID,92.2945,VALID,0,VALID,25.2123,VALID,348,VALID,0.267578,
2008-06-15, 00:20:04,VALID,1009.94,VALID,0,VALID,92.447,VALID,0,VALID,25.2123,VALID,348,VALID,0.195703,
2008-06-15, 00:21:04,VALID,1009.96,VALID,0,VALID,92.5995,VALID,0.105969,VALID,25.1928,VALID,348,VALID,0.178906,
2008-06-15, 00:22:04,VALID,1009.94,VALID,0,VALID,92.3784,VALID,0,VALID,25.1733,VALID,348,VALID,0.198828,
2008-06-15, 00:23:04,VALID,1009.92,VALID,0,VALID,92.3708,VALID,0.105969,VALID,25.1733,VALID,348,VALID,0.207031,
2008-06-15, 00:24:04,VALID,1009.91,VALID,0,VALID,92.325,VALID,0,VALID,25.1733,VALID,348,VALID,0.227734,
2008-06-15, 00:25:04,VALID,1009.9,VALID,0,VALID,92.2792,VALID,0,VALID,25.1538,VALID,348,VALID,0.0867188,
2008-06-15, 00:26:04,VALID,1009.9,VALID,0,VALID,92.3021,VALID,0,VALID,25.1733,VALID,348,VALID,0,
2008-06-15, 00:27:04,VALID,1009.9,VALID,0,VALID,92.4241,VALID,0.105969,VALID,25.1538,VALID,348,VALID,0,
2008-06-15, 00:28:04,VALID,1009.88,VALID,0,VALID,92.5385,VALID,0.105969,VALID,25.1733,VALID,348,VALID,0,
2008-06-15, 00:29:04,VALID,1009.89,VALID,0,VALID,92.5461,VALID,0,VALID,25.1557,VALID,348,VALID,0.0703125,
2008-06-15, 00:30:04,VALID,1009.89,VALID,0,VALID,92.6224,VALID,0,VALID,25.1557,VALID,348,VALID,0.221875,
2008-06-15, 00:31:04,VALID,1009.87,VALID,0,VALID,92.3784,VALID,0,VALID,25.1557,VALID,39,VALID,0.457031,
2008-06-15, 00:32:04,VALID,1009.86,VALID,0,VALID,92.1954,VALID,0,VALID,25.1557,VALID,39,VALID,0.269141,
2008-06-15, 00:33:04,VALID,1009.85,VALID,0,VALID,92.1344,VALID,0,VALID,25.1752,VALID,39,VALID,0.275391,
2008-06-15, 00:34:04,VALID,1009.83,VALID,0,VALID,91.959,VALID,0,VALID,25.1752,VALID,39,VALID,0.325,
2008-06-15, 00:35:04,VALID,1009.82,VALID,0,VALID,92.1649,VALID,0,VALID,25.2142,VALID,39,VALID,0.04375,
2008-06-15, 00:36:04,VALID,1009.78,VALID,0,VALID,92.0886,VALID,0,VALID,25.2161,VALID,39,VALID,0.00195313,
2008-06-15, 00:37:04,VALID,1009.8,VALID,0,VALID,91.9437,VALID,0,VALID,25.1947,VALID,39,VALID,0.303125,
2008-06-15, 00:38:04,VALID,1009.77,VALID,0,VALID,91.898,VALID,0,VALID,25.1947,VALID,39,VALID,0.149219,
2008-06-15, 00:39:04,VALID,1009.78,VALID,0,VALID,91.8217,VALID,0,VALID,25.2142,VALID,39,VALID,0.230859,
2008-06-15, 00:40:04,VALID,1009.78,VALID,0,VALID,91.7454,VALID,0,VALID,25.1947,VALID,39,VALID,0.203906,
2008-06-15, 00:41:04,VALID,1009.76,VALID,0,VALID,91.8522,VALID,0,VALID,25.1947,VALID,39,VALID,0.108594,
2008-06-15, 00:42:04,VALID,1009.73,VALID,0,VALID,92.0962,VALID,0,VALID,25.2142,VALID,39,VALID,0,
2008-06-15, 00:43:04,VALID,1009.74,VALID,0,VALID,92.2564,VALID,0,VALID,25.2142,VALID,39,VALID,0,
2008-06-15, 00:44:04,VALID,1009.73,VALID,0,VALID,92.2564,VALID,0,VALID,25.1947,VALID,39,VALID,0,
2008-06-15, 00:45:04,VALID,1009.69,VALID,0,VALID,92.2487,VALID,0,VALID,25.1966,VALID,39,VALID,0,
2008-06-15, 00:46:04,VALID,1009.68,VALID,0,VALID,92.4013,VALID,0,VALID,25.1966,VALID,39,VALID,0,
2008-06-15, 00:47:04,VALID,1009.65,VALID,0,VALID,92.3021,VALID,0,VALID,25.1771,VALID,39,VALID,0,
2008-06-15, 00:48:04,VALID,1009.65,VALID,0,VALID,92.3021,VALID,0,VALID,25.1752,VALID,39,VALID,0,
2008-06-15, 00:49:04,VALID,1009.65,VALID,0,VALID,92.3936,VALID,0,VALID,25.1752,VALID,39,VALID,0,
2008-06-15, 00:50:04,VALID,1009.64,VALID,0,VALID,92.3555,VALID,0,VALID,25.1557,VALID,39,VALID,0,
2008-06-15, 00:51:04,VALID,1009.6,VALID,0,VALID,92.203,VALID,0,VALID,25.1576,VALID,39,VALID,0,
2008-06-15, 00:52:04,VALID,1009.61,VALID,0,VALID,92.4318,VALID,0,VALID,25.1771,VALID,39,VALID,0,
2008-06-15, 00:53:04,VALID,1009.59,VALID,0,VALID,92.3784,VALID,0,VALID,25.1576,VALID,39,VALID,0,
2008-06-15, 00:54:04,VALID,1009.55,VALID,0,VALID,92.325,VALID,0,VALID,25.1381,VALID,39,VALID,0,
2008-06-15, 00:55:04,VALID,1009.54,VALID,0,VALID,92.2182,VALID,0,VALID,25.1381,VALID,39,VALID,0,
2008-06-15, 00:56:04,VALID,1009.52,VALID,0,VALID,92.2487,VALID,0,VALID,25.1381,VALID,39,VALID,0,
2008-06-15, 00:57:04,VALID,1009.49,VALID,0,VALID,92.1496,VALID,0,VALID,25.1167,VALID,39,VALID,0,
2008-06-15, 00:58:04,VALID,1009.47,VALID,0,VALID,91.9818,VALID,0,VALID,25.1381,VALID,39,VALID,0,
2008-06-15, 00:59:04,VALID,1009.48,VALID,0,VALID,92.3402,VALID,0,VALID,25.1362,VALID,39,VALID,0,
2008-06-15, 01:00:04,VALID,1009.48,VALID,0,VALID,92.3936,VALID,0,VALID,25.1362,VALID,39,VALID,0,
2008-06-15, 01:01:04,VALID,1009.47,VALID,0,VALID,92.2716,VALID,0,VALID,25.1167,VALID,39,VALID,0,
2008-06-15, 01:02:04,VALID,1009.47,VALID,0,VALID,92.1267,VALID,0,VALID,25.1187,VALID,39,VALID,0,
2008-06-15, 01:03:04,VALID,1009.45,VALID,0,VALID,92.0352,VALID,0,VALID,25.0973,VALID,39,VALID,0,
2008-06-15, 01:04:04,VALID,1009.43,VALID,0,VALID,92.0123,VALID,0,VALID,25.1381,VALID,39,VALID,0,
2008-06-15, 01:05:04,VALID,1009.43,VALID,0,VALID,92.3936,VALID,0,VALID,25.1381,VALID,39,VALID,0,
2008-06-15, 01:06:04,VALID,1009.4,VALID,0,VALID,92.325,VALID,0,VALID,25.1187,VALID,39,VALID,0,
2008-06-15, 01:07:04,VALID,1009.38,VALID,0,VALID,92.0123,VALID,0,VALID,25.0992,VALID,39,VALID,0,
2008-06-15, 01:08:04,VALID,1009.39,VALID,0,VALID,91.9895,VALID,0,VALID,25.0992,VALID,39,VALID,0.142578,
2008-06-15, 01:09:04,VALID,1009.36,VALID,0,VALID,91.837,VALID,0,VALID,25.0992,VALID,39,VALID,0.148047,
2008-06-15, 01:10:04,VALID,1009.35,VALID,0,VALID,91.8217,VALID,0,VALID,25.0973,VALID,39,VALID,0.0421875,
2008-06-15, 01:11:04,VALID,1009.34,VALID,0,VALID,91.7759,VALID,0,VALID,25.1187,VALID,39,VALID,0,
2008-06-15, 01:12:04,VALID,1009.36,VALID,0,VALID,91.9818,VALID,0,VALID,25.0973,VALID,39,VALID,0,
2008-06-15, 01:13:04,VALID,1009.33,VALID,0,VALID,92.1039,VALID,0,VALID,25.1381,VALID,39,VALID,0.269922,
2008-06-15, 01:14:04,VALID,1009.32,VALID,0,VALID,92.1191,VALID,0.105969,VALID,25.1362,VALID,39,VALID,0.385938,
2008-06-15, 01:15:04,VALID,1009.33,VALID,0,VALID,92.1191,VALID,0.105969,VALID,25.1148,VALID,47,VALID,0.462891,
2008-06-15, 01:16:04,VALID,1009.29,VALID,0,VALID,91.959,VALID,0,VALID,25.0954,VALID,47,VALID,0.265625,
2008-06-15, 01:17:04,VALID,1009.27,VALID,0,VALID,92.1039,VALID,0.105969,VALID,25.1148,VALID,47,VALID,0.142969,
2008-06-15, 01:18:04,VALID,1009.23,VALID,0,VALID,92.1954,VALID,0,VALID,25.1167,VALID,47,VALID,0.126953,
2008-06-15, 01:19:04,VALID,1009.22,VALID,0,VALID,92.2945,VALID,0.105969,VALID,25.0759,VALID,47,VALID,0,
2008-06-15, 01:20:04,VALID,1009.2,VALID,0,VALID,92.3631,VALID,0.105969,VALID,25.0759,VALID,47,VALID,0.0378906,
2008-06-15, 01:21:04,VALID,1009.22,VALID,0,VALID,92.2869,VALID,0.105969,VALID,25.0369,VALID,47,VALID,0,
2008-06-15, 01:22:04,VALID,1009.21,VALID,0,VALID,92.264,VALID,0,VALID,25.0388,VALID,47,VALID,0,
2008-06-15, 01:23:04,VALID,1009.18,VALID,0,VALID,92.3326,VALID,0,VALID,25.0388,VALID,47,VALID,0,
2008-06-15, 01:24:04,VALID,1009.13,VALID,0,VALID,92.447,VALID,0,VALID,25.0174,VALID,47,VALID,0,
2008-06-15, 01:25:04,VALID,1009.11,VALID,0,VALID,92.5004,VALID,0,VALID,25.0174,VALID,47,VALID,0,
2008-06-15, 01:26:04,VALID,1009.13,VALID,0,VALID,92.5461,VALID,0,VALID,25.0174,VALID,47,VALID,0,
2008-06-15, 01:27:04,VALID,1009.06,VALID,0,VALID,92.5614,VALID,0.105969,VALID,25.0193,VALID,47,VALID,0.0796875,
2008-06-15, 01:28:04,VALID,1009.07,VALID,0,VALID,92.5538,VALID,0.105969,VALID,24.9784,VALID,47,VALID,0.169531,
2008-06-15, 01:29:04,VALID,1009.04,VALID,0,VALID,92.4851,VALID,0,VALID,24.9608,VALID,47,VALID,0.16875,
2008-06-15, 01:30:04,VALID,1009.03,VALID,0,VALID,92.5614,VALID,0,VALID,24.9627,VALID,47,VALID,0.158203,
2008-06-15, 01:31:04,VALID,1009.03,VALID,0,VALID,92.691,VALID,0,VALID,24.9627,VALID,47,VALID,0.179297,
2008-06-15, 01:32:04,VALID,1009.02,VALID,0,VALID,92.8207,VALID,0,VALID,24.9413,VALID,47,VALID,0.179297,
2008-06-15, 01:33:04,VALID,1009.02,VALID,0,VALID,92.8893,VALID,0,VALID,24.9432,VALID,47,VALID,0.127734,
2008-06-15, 01:34:04,VALID,1009.01,VALID,0,VALID,92.9579,VALID,0,VALID,24.9432,VALID,47,VALID,0.0449219,
2008-06-15, 01:35:04,VALID,1009.02,VALID,0,VALID,92.9656,VALID,0,VALID,24.9218,VALID,47,VALID,0,
2008-06-15, 01:36:04,VALID,1009.03,VALID,0,VALID,93.0113,VALID,0,VALID,24.9432,VALID,47,VALID,0,
2008-06-15, 01:37:04,VALID,1009,VALID,0,VALID,93.0189,VALID,0,VALID,24.9218,VALID,47,VALID,0,
2008-06-15, 01:38:04,VALID,1009.03,VALID,0,VALID,93.0647,VALID,0,VALID,24.9432,VALID,47,VALID,0,
2008-06-15, 01:39:04,VALID,1009,VALID,0,VALID,93.0189,VALID,0,VALID,24.8828,VALID,47,VALID,0,
2008-06-15, 01:40:04,VALID,1009.03,VALID,0,VALID,92.9884,VALID,0,VALID,24.9042,VALID,47,VALID,0,
2008-06-15, 01:41:04,VALID,1009.03,VALID,0,VALID,93.1028,VALID,0,VALID,24.9237,VALID,47,VALID,0,
2008-06-15, 01:42:04,VALID,1009.03,VALID,0,VALID,93.0876,VALID,0,VALID,24.8633,VALID,47,VALID,0,
2008-06-15, 01:43:04,VALID,1009.03,VALID,0,VALID,93.1943,VALID,0,VALID,24.8847,VALID,47,VALID,0,
2008-06-15, 01:44:04,VALID,1009.03,VALID,0,VALID,93.2172,VALID,0,VALID,24.8633,VALID,47,VALID,0,
2008-06-15, 01:45:04,VALID,1009.02,VALID,0,VALID,93.3392,VALID,0,VALID,24.8438,VALID,47,VALID,0,
2008-06-15, 01:46:04,VALID,1009.03,VALID,0,VALID,93.4384,VALID,0,VALID,24.8847,VALID,47,VALID,0.365625,
2008-06-15, 01:47:04,VALID,1009.01,VALID,0,VALID,93.4841,VALID,0,VALID,24.8828,VALID,99,VALID,0.590234,
2008-06-15, 01:48:04,VALID,1009.02,VALID,0,VALID,93.3773,VALID,0,VALID,24.9004,VALID,95,VALID,0.508594,
2008-06-15, 01:49:04,VALID,1008.99,VALID,0,VALID,93.1943,VALID,0.105969,VALID,24.9413,VALID,95,VALID,0.463672,
2008-06-15, 01:50:04,VALID,1009,VALID,0,VALID,93.0876,VALID,0.105969,VALID,24.9803,VALID,95,VALID,0.284375,
2008-06-15, 01:51:04,VALID,1009,VALID,0,VALID,93.2401,VALID,0.105969,VALID,24.9979,VALID,95,VALID,0.226953,
2008-06-15, 01:52:04,VALID,1008.97,VALID,0,VALID,93.1562,VALID,0,VALID,24.9784,VALID,95,VALID,0.30625,
2008-06-15, 01:53:04,VALID,1008.97,VALID,0,VALID,93.1638,VALID,0,VALID,25.0193,VALID,95,VALID,0.358203,
2008-06-15, 01:54:04,VALID,1008.96,VALID,0,VALID,93.1638,VALID,0.105969,VALID,24.9979,VALID,95,VALID,0.294531,
2008-06-15, 01:55:04,VALID,1008.95,VALID,0,VALID,92.9884,VALID,0,VALID,24.9784,VALID,95,VALID,0.230078,
2008-06-15, 01:56:04,VALID,1008.91,VALID,0,VALID,92.9732,VALID,0,VALID,24.9784,VALID,95,VALID,0.148438,
2008-06-15, 01:57:04,VALID,1008.92,VALID,0,VALID,92.8893,VALID,0.105969,VALID,24.9979,VALID,95,VALID,0.0113281,
2008-06-15, 01:58:04,VALID,1008.89,VALID,0,VALID,92.8512,VALID,0.105969,VALID,24.9979,VALID,95,VALID,0.123047,
2008-06-15, 01:59:04,VALID,1008.9,VALID,0,VALID,92.813,VALID,0.105969,VALID,24.9979,VALID,95,VALID,0.0375,
2008-06-15, 02:00:04,VALID,1008.9,VALID,0,VALID,92.7292,VALID,0,VALID,24.9784,VALID,95,VALID,0,
2008-06-15, 02:01:04,VALID,1008.89,VALID,0,VALID,92.7063,VALID,0,VALID,24.9979,VALID,95,VALID,0.145703,
2008-06-15, 02:02:04,VALID,1008.89,VALID,0,VALID,92.7673,VALID,0,VALID,25.0388,VALID,95,VALID,0,
2008-06-15, 02:03:04,VALID,1008.9,VALID,0,VALID,92.691,VALID,0.105969,VALID,25.0193,VALID,95,VALID,0.00195313,
2008-06-15, 02:04:04,VALID,1008.89,VALID,0,VALID,92.7063,VALID,0.105969,VALID,25.0174,VALID,95,VALID,0,
2008-06-15, 02:05:04,VALID,1008.89,VALID,0,VALID,92.7749,VALID,0.105969,VALID,25.0174,VALID,95,VALID,0,
2008-06-15, 02:06:04,VALID,1008.91,VALID,0,VALID,92.7978,VALID,0.105969,VALID,25.0174,VALID,95,VALID,0,
2008-06-15, 02:07:04,VALID,1008.91,VALID,0,VALID,92.7749,VALID,0.105969,VALID,25.0369,VALID,95,VALID,0,
2008-06-15, 02:08:04,VALID,1008.95,VALID,0,VALID,92.9961,VALID,0.105969,VALID,25.0174,VALID,95,VALID,0.169141,
2008-06-15, 02:09:04,VALID,1008.98,VALID,0,VALID,93.1181,VALID,0.105969,VALID,25.0193,VALID,95,VALID,0.211719,
2008-06-15, 02:10:04,VALID,1009.01,VALID,0,VALID,93.1486,VALID,0.105969,VALID,24.9979,VALID,95,VALID,0.0277344,
2008-06-15, 02:11:04,VALID,1008.97,VALID,0,VALID,93.0952,VALID,0.105969,VALID,24.9998,VALID,95,VALID,0,
2008-06-15, 02:12:04,VALID,1009.01,VALID,0,VALID,92.9656,VALID,0,VALID,24.9803,VALID,95,VALID,0,
2008-06-15, 02:13:04,VALID,1008.99,VALID,0,VALID,93.0952,VALID,0.105969,VALID,24.9589,VALID,95,VALID,0.101172,
2008-06-15, 02:14:04,VALID,1009,VALID,0,VALID,93.0876,VALID,0.105969,VALID,24.9394,VALID,95,VALID,0.113281,
2008-06-15, 02:15:04,VALID,1009.01,VALID,0,VALID,93.0189,VALID,0,VALID,24.9394,VALID,95,VALID,0.162109,
2008-06-15, 02:16:04,VALID,1009,VALID,0,VALID,93.0113,VALID,0.105969,VALID,24.9199,VALID,95,VALID,0,
2008-06-15, 02:17:04,VALID,1008.98,VALID,0,VALID,93.0418,VALID,0.105969,VALID,24.9004,VALID,95,VALID,0.0894531,
2008-06-15, 02:18:04,VALID,1008.96,VALID,0,VALID,93.1181,VALID,0.105969,VALID,24.9199,VALID,95,VALID,0,
2008-06-15, 02:19:04,VALID,1008.95,VALID,0,VALID,93.1562,VALID,0.105969,VALID,24.9199,VALID,95,VALID,0,
2008-06-15, 02:20:04,VALID,1008.91,VALID,0,VALID,93.263,VALID,0.105969,VALID,24.9004,VALID,95,VALID,0,
2008-06-15, 02:21:04,VALID,1008.93,VALID,0,VALID,93.3545,VALID,0.105969,VALID,24.9004,VALID,95,VALID,0.0175781,
2008-06-15, 02:22:04,VALID,1008.89,VALID,0,VALID,93.4307,VALID,0.105969,VALID,24.9218,VALID,95,VALID,0,
2008-06-15, 02:23:04,VALID,1008.91,VALID,0,VALID,93.4841,VALID,0.105969,VALID,24.9218,VALID,95,VALID,0,
2008-06-15, 02:24:04,VALID,1008.91,VALID,0,VALID,93.3545,VALID,0.105969,VALID,24.9023,VALID,95,VALID,0,
2008-06-15, 02:25:04,VALID,1008.92,VALID,0,VALID,93.2248,VALID,0.105969,VALID,24.8615,VALID,95,VALID,0.247266,
2008-06-15, 02:26:04,VALID,1008.92,VALID,0,VALID,93.1562,VALID,0.105969,VALID,24.8828,VALID,94,VALID,0.313672,
2008-06-15, 02:27:04,VALID,1008.92,VALID,0,VALID,93.1791,VALID,0.105969,VALID,24.8615,VALID,67,VALID,0.407813,
2008-06-15, 02:28:04,VALID,1008.94,VALID,0,VALID,93.1105,VALID,0,VALID,24.842,VALID,43,VALID,0.433203,
2008-06-15, 02:29:04,VALID,1008.91,VALID,0,VALID,93.1257,VALID,0,VALID,24.8438,VALID,22,VALID,0.444531,
2008-06-15, 02:30:04,VALID,1008.95,VALID,0,VALID,93.1791,VALID,0,VALID,24.8633,VALID,18,VALID,0.357031,
2008-06-15, 02:31:04,VALID,1008.93,VALID,0,VALID,93.2706,VALID,0.105969,VALID,24.8438,VALID,17,VALID,0.332031,
2008-06-15, 02:32:04,VALID,1008.91,VALID,0,VALID,93.3545,VALID,0,VALID,24.8225,VALID,16,VALID,0.410937,
2008-06-15, 02:33:04,VALID,1008.88,VALID,0,VALID,93.3545,VALID,0,VALID,24.8225,VALID,16,VALID,0.397266,
2008-06-15, 02:34:04,VALID,1008.88,VALID,0,VALID,93.3316,VALID,0,VALID,24.8049,VALID,16,VALID,0.385938,
2008-06-15, 02:35:04,VALID,1008.84,VALID,0,VALID,93.507,VALID,0,VALID,24.7854,VALID,16,VALID,0.3875,
2008-06-15, 02:36:04,VALID,1008.85,VALID,0,VALID,93.4917,VALID,0,VALID,24.7464,VALID,16,VALID,0.414844,
2008-06-15, 02:37:04,VALID,1008.85,VALID,0,VALID,93.568,VALID,0,VALID,24.7269,VALID,16,VALID,0.407813,
2008-06-15, 02:38:04,VALID,1008.86,VALID,0,VALID,93.6061,VALID,0,VALID,24.7074,VALID,16,VALID,0.359766,
2008-06-15, 02:39:04,VALID,1008.86,VALID,0,VALID,93.6824,VALID,0,VALID,24.7074,VALID,16,VALID,0.221875,
2008-06-15, 02:40:04,VALID,1008.87,VALID,0,VALID,93.7586,VALID,0,VALID,24.6879,VALID,16,VALID,0.0648438,
2008-06-15, 02:41:04,VALID,1008.88,VALID,0,VALID,93.7968,VALID,0,VALID,24.6879,VALID,16,VALID,0.222266,
2008-06-15, 02:42:04,VALID,1008.88,VALID,0,VALID,93.8807,VALID,0,VALID,24.6879,VALID,16,VALID,0.323438,
2008-06-15, 02:43:04,VALID,1008.89,VALID,0,VALID,93.9493,VALID,0,VALID,24.686,VALID,18,VALID,0.352344,
2008-06-15, 02:44:04,VALID,1008.89,VALID,0,VALID,94.0179,VALID,0,VALID,24.7074,VALID,34,VALID,0.390234,
2008-06-15, 02:45:04,VALID,1008.88,VALID,0,VALID,94.0865,VALID,0,VALID,24.7269,VALID,35,VALID,0.249219,
2008-06-15, 02:46:04,VALID,1008.9,VALID,0,VALID,94.0942,VALID,0,VALID,24.7269,VALID,35,VALID,0.323047,
2008-06-15, 02:47:04,VALID,1008.9,VALID,0,VALID,94.0942,VALID,0,VALID,24.7659,VALID,83,VALID,0.525781,
2008-06-15, 02:48:04,VALID,1008.89,VALID,0,VALID,94.1018,VALID,0,VALID,24.7659,VALID,83,VALID,0.565234,
2008-06-15, 02:49:04,VALID,1008.88,VALID,0,VALID,93.934,VALID,0,VALID,24.7854,VALID,94,VALID,0.65,
2008-06-15, 02:50:04,VALID,1008.88,VALID,0,VALID,93.7891,VALID,0,VALID,24.8049,VALID,80,VALID,0.678125,
2008-06-15, 02:51:04,VALID,1008.84,VALID,0,VALID,93.7053,VALID,0,VALID,24.8244,VALID,79,VALID,0.485547,
2008-06-15, 02:52:04,VALID,1008.84,VALID,0,VALID,93.5985,VALID,0,VALID,24.8244,VALID,68,VALID,0.3,
2008-06-15, 02:53:04,VALID,1008.85,VALID,0,VALID,93.507,VALID,0,VALID,24.8049,VALID,47,VALID,0.452734,
2008-06-15, 02:54:04,VALID,1008.82,VALID,0,VALID,93.4765,VALID,0,VALID,24.7835,VALID,41,VALID,0.316406,
2008-06-15, 02:55:04,VALID,1008.84,VALID,0,VALID,93.5299,VALID,0,VALID,24.764,VALID,356,VALID,0.379687,
2008-06-15, 02:56:04,VALID,1008.83,VALID,0,VALID,93.4689,VALID,0,VALID,24.7854,VALID,356,VALID,0.526172,
2008-06-15, 02:57:04,VALID,1008.82,VALID,0,VALID,93.4612,VALID,0,VALID,24.764,VALID,354,VALID,0.530859,
2008-06-15, 02:58:04,VALID,1008.82,VALID,0,VALID,93.4917,VALID,0,VALID,24.7659,VALID,353,VALID,0.508984,
2008-06-15, 02:59:04,VALID,1008.83,VALID,0,VALID,93.4841,VALID,0,VALID,24.7464,VALID,355,VALID,0.449219,
2008-06-15, 03:00:04,VALID,1008.85,VALID,0,VALID,93.4917,VALID,0,VALID,24.7269,VALID,356,VALID,0.343359,
2008-06-15, 03:01:04,VALID,1008.87,VALID,0,VALID,93.5832,VALID,0,VALID,24.7074,VALID,356,VALID,0.346484,
2008-06-15, 03:02:04,VALID,1008.84,VALID,0,VALID,93.6671,VALID,0,VALID,24.6879,VALID,356,VALID,0.171484,
2008-06-15, 03:03:04,VALID,1008.85,VALID,0,VALID,93.7358,VALID,0,VALID,24.6879,VALID,356,VALID,0.213672,
2008-06-15, 03:04:04,VALID,1008.85,VALID,0,VALID,93.7434,VALID,0,VALID,24.6684,VALID,356,VALID,0.0328125,
2008-06-15, 03:05:04,VALID,1008.84,VALID,0,VALID,93.7891,VALID,0,VALID,24.6684,VALID,356,VALID,0,
2008-06-15, 03:06:04,VALID,1008.82,VALID,0,VALID,93.812,VALID,0.105969,VALID,24.6276,VALID,356,VALID,0,
2008-06-15, 03:07:04,VALID,1008.81,VALID,0,VALID,93.9035,VALID,0,VALID,24.6489,VALID,356,VALID,0.100391,
2008-06-15, 03:08:04,VALID,1008.79,VALID,0,VALID,93.9798,VALID,0,VALID,24.6684,VALID,356,VALID,0,
2008-06-15, 03:09:04,VALID,1008.8,VALID,0,VALID,94.0408,VALID,0,VALID,24.6471,VALID,356,VALID,0,
2008-06-15, 03:10:04,VALID,1008.8,VALID,0,VALID,94.0637,VALID,0.105969,VALID,24.6684,VALID,356,VALID,0.0359375,
2008-06-15, 03:11:04,VALID,1008.79,VALID,0,VALID,94.0713,VALID,0,VALID,24.6489,VALID,356,VALID,0.165625,
2008-06-15, 03:12:04,VALID,1008.8,VALID,0,VALID,94.1781,VALID,0,VALID,24.6879,VALID,356,VALID,0.268359,
2008-06-15, 03:13:04,VALID,1008.81,VALID,0,VALID,94.1933,VALID,0,VALID,24.6666,VALID,356,VALID,0.284766,
2008-06-15, 03:14:04,VALID,1008.81,VALID,0,VALID,94.2009,VALID,0,VALID,24.7269,VALID,25,VALID,0.304688,
2008-06-15, 03:15:04,VALID,1008.81,VALID,0,VALID,94.2848,VALID,0,VALID,24.7464,VALID,95,VALID,0.535547,
2008-06-15, 03:16:04,VALID,1008.83,VALID,0,VALID,94.1476,VALID,0,VALID,24.7659,VALID,97,VALID,0.816797,
2008-06-15, 03:17:04,VALID,1008.81,VALID,0,VALID,93.9798,VALID,0,VALID,24.8049,VALID,92,VALID,0.623047,
2008-06-15, 03:18:04,VALID,1008.84,VALID,0,VALID,93.8273,VALID,0,VALID,24.8438,VALID,92,VALID,0.474219,
2008-06-15, 03:19:04,VALID,1008.82,VALID,0,VALID,93.7663,VALID,0,VALID,24.8438,VALID,92,VALID,0.176563,
2008-06-15, 03:20:04,VALID,1008.83,VALID,0,VALID,93.6519,VALID,0.105969,VALID,24.8633,VALID,92,VALID,0.120312,
2008-06-15, 03:21:04,VALID,1008.87,VALID,0,VALID,93.568,VALID,0,VALID,24.8225,VALID,92,VALID,0.240625,
2008-06-15, 03:22:04,VALID,1008.85,VALID,0,VALID,93.568,VALID,0,VALID,24.8438,VALID,92,VALID,0,
2008-06-15, 03:23:04,VALID,1008.84,VALID,0,VALID,93.5985,VALID,0,VALID,24.8633,VALID,92,VALID,0.171484,
2008-06-15, 03:24:04,VALID,1008.82,VALID,0,VALID,93.5451,VALID,0,VALID,24.8438,VALID,92,VALID,0.374219,
2008-06-15, 03:25:04,VALID,1008.81,VALID,0,VALID,93.4384,VALID,0,VALID,24.8438,VALID,92,VALID,0.382813,
2008-06-15, 03:26:04,VALID,1008.78,VALID,0,VALID,93.4384,VALID,0.105969,VALID,24.8244,VALID,130,VALID,0.626562,
2008-06-15, 03:27:04,VALID,1008.77,VALID,0,VALID,93.4917,VALID,0.105969,VALID,24.8244,VALID,136,VALID,0.512891,
2008-06-15, 03:28:04,VALID,1008.76,VALID,0,VALID,93.5375,VALID,0,VALID,24.8438,VALID,136,VALID,0.489453,
2008-06-15, 03:29:04,VALID,1008.76,VALID,0,VALID,93.4841,VALID,0.105969,VALID,24.803,VALID,136,VALID,0.558203,
2008-06-15, 03:30:04,VALID,1008.77,VALID,0,VALID,93.4689,VALID,0.105969,VALID,24.803,VALID,136,VALID,0.375781,
2008-06-15, 03:31:04,VALID,1008.77,VALID,0,VALID,93.5375,VALID,0.105969,VALID,24.803,VALID,136,VALID,0.463281,
2008-06-15, 03:32:04,VALID,1008.77,VALID,0,VALID,93.5451,VALID,0,VALID,24.8225,VALID,105,VALID,0.795313,
2008-06-15, 03:33:04,VALID,1008.77,VALID,0,VALID,93.4917,VALID,0.105969,VALID,24.842,VALID,105,VALID,0.710938,
2008-06-15, 03:34:04,VALID,1008.78,VALID,0,VALID,93.4536,VALID,0,VALID,24.842,VALID,95,VALID,0.407031,
2008-06-15, 03:35:04,VALID,1008.79,VALID,0,VALID,93.3697,VALID,0.105969,VALID,24.8225,VALID,62,VALID,0.592188,
2008-06-15, 03:36:04,VALID,1008.77,VALID,0,VALID,93.3316,VALID,0.105969,VALID,24.8225,VALID,60,VALID,0.539453,
2008-06-15, 03:37:04,VALID,1008.76,VALID,0,VALID,93.3545,VALID,0.105969,VALID,24.8438,VALID,58,VALID,0.356641,
2008-06-15, 03:38:04,VALID,1008.77,VALID,0,VALID,93.3621,VALID,0.105969,VALID,24.8225,VALID,58,VALID,0.299609,
2008-06-15, 03:39:04,VALID,1008.73,VALID,0,VALID,93.3621,VALID,0.105969,VALID,24.803,VALID,58,VALID,0.0046875,
2008-06-15, 03:40:04,VALID,1008.74,VALID,0,VALID,93.4307,VALID,0.105969,VALID,24.8225,VALID,58,VALID,0.1625,
2008-06-15, 03:41:04,VALID,1008.76,VALID,0,VALID,93.4612,VALID,0,VALID,24.803,VALID,58,VALID,0.282422,
2008-06-15, 03:42:04,VALID,1008.74,VALID,0,VALID,93.4917,VALID,0.105969,VALID,24.803,VALID,58,VALID,0.278125,
2008-06-15, 03:43:04,VALID,1008.74,VALID,0,VALID,93.4917,VALID,0.105969,VALID,24.764,VALID,58,VALID,0.353125,
2008-06-15, 03:44:04,VALID,1008.75,VALID,0,VALID,93.5375,VALID,0.105969,VALID,24.764,VALID,65,VALID,0.515234,
2008-06-15, 03:45:04,VALID,1008.8,VALID,0,VALID,93.6137,VALID,0.105969,VALID,24.764,VALID,73,VALID,0.507422,
2008-06-15, 03:46:04,VALID,1008.79,VALID,0,VALID,93.6519,VALID,0.105969,VALID,24.764,VALID,75,VALID,0.498828,